Location: Antoign�
(47.0844°N, 0.1131°W)
Time: 11:09:51
(UTC+00:00)

PSLV R/B - Pass Details

Date: 03 March 2021
Orbit: 566 x 599 km, 98.2° (Epoch: 10 April)

Event Time Altitude Azimuth Distance (km) Brightness Sun altitude
Rises 18:33:29 0° 16° (NNE) 2,807 7.3 -8.4°
Reaches altitude 10° 18:35:41 10° 21° (NNE) 1,898 6.4 -8.7°
Maximum altitude 18:39:45 60° 102° (ESE) 659 3.9 -9.4°
Drops below altitude 10° 18:43:45 10° 182° (S) 1,867 6.5 -10.1°
Sets 18:45:53 0° 186° (S) 2,756 7.5 -10.5°
